Tracking 29892 objects as of 21-Nov-2024
HD Live streaming from Space Station
objects crossing your sky now

COSMOS 1852

Track COSMOS 1852 now!
10-day predictions
COSMOS 1852 is classified as:


NORAD ID: 18113
Int'l Code: 1987-051A
Perigee: 1,480.3 km
Apogee: 1,506.0 km
Inclination: 74.0 °
Period: 115.7 minutes
Semi major axis: 7864 km
RCS: 0.6932 m2 (medium)
Launch date: June 16, 1987
Source: Commonwealth of Independent States (former USSR) (CIS)
Launch site: PLESETSK MISSILE AND SPACE COMPLEX (PKMTR)
Your satellite tracking list
Your tracking list is empty




NASA's NSSDC Master Catalog

Two Line Element Set (TLE):
1 18113U 87051A   24325.94773663 -.00000020  00000-0 -32738-4 0  9997
2 18113  74.0012 159.6370 0016307  76.8284 283.4582 12.44874203701097
Source of the keplerian elements: AFSPC